[[{"header":{"parameterUnit":"m.s-1","parameterCategory":1,"la1":30.2991,"la2":30.254,"lo1":-89.0895,"lo2":-89.0444,"dy":0.0017,"dx":0.0017,"nx":28,"ny":28,"refTime":"2026-01-02T09:00:00:Z","depth":0,"parameterNumber":2,"parameterNumberName":"U-component_of_WINDS"},"data":[0,0,0,0,0,0,0,0,0,0,0,0,0,0,0,0,0,0,0,0,0,0,0,0,0,0,0,0,0,0,0,0,0,0,0,0,0,0,0,0,0,0,0,0,0,0,0,0,0,0,0,0,0,0,0,0,0,0,3.1145,3.1146,0,3.1176,3.1176,3.1176,3.1165,3.1165,3.1164,3.1163,3.1195,3.1197,3.1198,0,0,0,0,0,0,0,0,0,0,0,0,0,3.1081,3.1082,3.1145,3.1146,3.1146,3.1176,3.1176,3.1177,3.1166,3.1165,3.1164,3.1163,3.1195,3.1197,3.1199,0,0,0,0,0,0,0,0,0,0,0,0,0,3.111,3.1083,3.1145,3.1144,3.1144,3.1176,3.1176,3.1177,3.1166,3.1165,3.1164,3.1163,3.1194,3.1197,3.1199,3.1233,0,0,3.1206,3.1207,0,0,0,0,0,0,0,0,3.1108,3.1112,3.1144,3.1144,3.1144,3.1166,3.1165,3.1196,3.1166,3.1158,3.1163,3.1162,3.1186,3.1189,3.1197,3.1235,3.1236,3.1206,3.1207,3.1208,3.1209,0,0,0,0,0,0,0,3.1106,3.1111,3.1157,3.1144,3.1145,3.1143,3.1146,3.1171,3.1177,3.1158,3.1157,3.1161,3.1186,3.1195,3.1198,3.1237,3.1206,3.1208,3.1209,3.121,3.131,3.1311,0,0,0,0,0,0,3.1104,3.1109,3.1156,3.1158,3.1123,3.1145,3.1149,3.116,3.1177,3.1179,3.1162,3.1161,3.1192,3.1195,3.1199,3.1245,3.1208,3.121,3.1212,3.1309,3.131,3.1312,0,0,0,0,0,0,3.1103,3.1108,3.1155,3.1134,3.114,3.1147,3.116,3.1161,3.117,3.118,3.1181,3.117,3.1191,3.1196,3.1226,3.1245,3.1211,3.1213,3.1307,3.1309,3.1311,3.1334,0,0,0,0,0,0,3.1101,3.1108,3.112,3.1134,3.1141,3.118,3.1161,3.1162,3.1174,3.1172,3.1187,3.1189,3.1191,3.1223,3.1228,3.1248,3.1215,3.1306,3.1308,3.131,3.1331,3.1336,3.134,0,0,0,0,0,3.1098,3.1124,3.112,3.1126,3.1156,3.1181,3.1185,3.1187,3.1175,3.1189,3.1196,3.1189,3.1242,3.1226,3.1232,3.1253,3.1304,3.1307,3.131,3.1329,3.1335,3.134,0,0,0,0,0,0,3.1111,3.1126,3.1122,3.1152,3.1166,3.118,3.1196,3.1192,3.1209,3.1207,3.1208,3.1212,3.1244,3.1251,3.1233,3.129,3.1272,3.1276,3.1284,3.129,3.1294,3.1293,3.1217,0,0,0,0,0,3.1117,3.1136,3.1148,3.1174,3.1181,3.1188,3.1199,3.1199,3.1213,3.1219,3.1228,3.1242,3.1263,3.1276,3.1295,3.1332,3.1338,3.1349,3.1354,3.1358,3.1362,3.1387,3.1394,3.1321,3.1321,3.1321,0,0,3.113,3.1141,3.1152,3.1177,3.1187,3.1209,3.1192,3.1214,3.1231,3.1222,3.1252,3.126,3.1276,3.1311,3.1327,3.1318,3.1383,3.1361,3.1364,3.1367,3.1391,3.1398,3.1404,3.1323,3.1323,3.1323,0,0,3.1166,3.1174,3.1199,3.1211,3.1227,3.1232,3.1238,3.1253,3.1259,3.1289,3.1284,3.1304,3.1338,3.1352,3.1363,3.1409,3.1405,3.1415,3.144,3.1464,3.147,3.1475,3.1495,3.1502,3.1419,3.1419,3.1419,0,3.118,3.1211,3.1212,3.1236,3.1249,3.1243,3.1269,3.1281,3.1303,3.1313,3.1302,3.1349,3.1359,3.1399,3.1411,3.1419,3.1429,3.1414,3.1468,3.1474,3.1479,3.1498,3.1505,3.142,3.142,3.142,3.142,0,3.123,3.1252,3.127,3.1294,3.1308,3.1333,3.134,3.1355,3.1355,3.1361,3.1395,3.1408,3.1432,3.1441,3.144,3.1483,3.1478,3.1468,3.145,3.1487,3.1506,3.1513,3.1423,3.1422,3.1422,3.1421,0,0,3.1273,3.1299,3.1306,3.1318,3.1338,3.1356,3.1383,3.1407,3.1422,3.1438,3.1462,3.1494,3.1487,3.15,3.15,3.1521,3.1563,3.151,3.151,3.1523,3.1616,3.1625,3.1634,3.1559,3.1561,3.1562,3.1616,0,3.1312,3.1359,3.1362,3.1405,3.1428,3.1424,3.1448,3.1464,3.1472,3.1494,3.1503,3.1527,3.1513,3.1522,3.1542,3.1553,3.1582,3.1549,3.1585,3.1587,3.1584,3.1643,3.1651,3.1702,3.1623,3.1624,3.1625,0,3.1364,3.1384,3.143,3.1451,3.1461,3.1482,3.1507,3.1527,3.1547,3.1551,3.1568,3.1568,3.1598,3.1579,3.1623,3.1601,3.1616,3.1624,3.1626,3.1632,3.161,3.1653,3.1717,3.1727,3.1635,3.1635,3.1634,0,3.1395,3.1433,3.1467,3.1477,3.1501,3.1518,3.1529,3.1547,3.1563,3.1585,3.1597,3.1622,3.1636,3.1657,3.1665,3.1649,3.171,3.169,3.1718,3.1718,3.1732,3.1732,3.1804,3.1737,3.1737,3.1737,3.1737,0,3.144,3.1469,3.1482,3.1503,3.1536,3.1541,3.1575,3.1585,3.1603,3.1628,3.1626,3.1649,3.1656,3.1682,3.1688,3.1727,3.1732,3.174,3.1741,3.1741,3.1741,3.1753,3.1751,3.1739,3.1738,3.1738,3.1738,0,3.1481,3.149,3.1527,3.1548,3.1555,3.1579,3.1598,3.162,3.1629,3.1661,3.1669,3.1683,3.1714,3.1723,3.1759,3.1764,3.1811,3.1807,3.1804,3.1805,3.1834,3.1833,3.1919,3.1932,3.1854,3.1854,3.1855,0,3.151,3.1533,3.1558,3.1575,3.1587,3.1613,3.1631,3.1637,3.1656,3.1683,3.1703,3.1733,3.1758,3.1808,3.1823,3.1852,3.1852,3.188,3.1857,3.1858,3.1858,3.1858,3.1862,3.1886,3.1886,3.1887,3.1887,0,3.1563,3.1567,3.1592,3.162,3.1641,3.1663,3.1684,3.1698,3.1709,3.173,3.1762,3.1782,3.1821,3.1853,3.1884,3.1898,3.1896,3.1895,3.1904,3.1905,3.1904,3.191,3.182,3.1893,3.1893,3.1892,3.1892,3.1892,3.1601,3.1623,3.1645,3.1674,3.1692,3.1713,3.1736,3.1749,3.1776,3.1809,3.1811,3.1847,3.1872,3.1913,3.1929,3.1959,3.1951,3.1962,3.1966,3.197,3.1974,3.1898,3.1964,3.1964,3.1964,3.1963,3.1963,0,3.1656,3.1672,3.1698,3.173,3.1754,3.175,3.1775,3.1796,3.1827,3.185,3.1876,3.1916,3.1948,3.1967,3.2,3.2021,3.2022,3.203,3.203,3.2034,3.1977,3.1968,3.2029,3.2029,3.2029,3.2029,3.2029,3.2029,3.1688,3.1727,3.1735,3.1784,3.1799,3.1835,3.185,3.1871,3.189,3.1935,3.1962,3.1974,3.1997,3.2033,3.2064,3.2069,3.2083,3.2093,3.2097,3.2044,3.2037,3.2031,3.2023,3.2095,3.2095,3.2153,3.2153,3.2154]},{"header":{"parameterUnit":"m.s-1","parameterCategory":1,"la1":30.2991,"la2":30.254,"lo1":-89.0895,"lo2":-89.0444,"dy":0.0017,"dx":0.0017,"nx":28,"ny":28,"refTime":"2026-01-02T09:00:00:Z","depth":0,"parameterNumber":3,"parameterNumberName":"V-component_of_WINDS"},"data":[0,0,0,0,0,0,0,0,0,0,0,0,0,0,0,0,0,0,0,0,0,0,0,0,0,0,0,0,0,0,0,0,0,0,0,0,0,0,0,0,0,0,0,0,0,0,0,0,0,0,0,0,0,0,0,0,0,0,2.0573,2.0574,0,2.0631,2.0632,2.0633,2.0617,2.0616,2.0615,2.0614,2.0674,2.0677,2.068,0,0,0,0,0,0,0,0,0,0,0,0,0,2.0452,2.0455,2.0573,2.0574,2.0575,2.0631,2.0632,2.0633,2.0618,2.0616,2.0615,2.0613,2.0674,2.0677,2.068,0,0,0,0,0,0,0,0,0,0,0,0,0,2.0507,2.0455,2.0573,2.0574,2.0575,2.0631,2.0632,2.0633,2.0618,2.0616,2.0614,2.0613,2.0672,2.0676,2.068,2.074,0,0,2.0693,2.0694,0,0,0,0,0,0,0,0,2.0504,2.0512,2.0573,2.0574,2.0575,2.0615,2.0611,2.0669,2.0618,2.0601,2.0614,2.0612,2.0656,2.0661,2.0676,2.0743,2.0745,2.0693,2.0695,2.0697,2.0698,0,0,0,0,0,0,0,2.05,2.0509,2.0596,2.0574,2.0575,2.0572,2.0578,2.0622,2.0638,2.0603,2.0602,2.0609,2.0656,2.0672,2.0677,2.0746,2.0693,2.0696,2.0699,2.0701,2.0867,2.0869,0,0,0,0,0,0,2.0495,2.0506,2.0594,2.0598,2.0534,2.0576,2.0582,2.0604,2.0637,2.0641,2.061,2.0608,2.0666,2.0673,2.0679,2.0753,2.0697,2.0701,2.0703,2.0865,2.0867,2.087,0,0,0,0,0,0,2.0493,2.0504,2.0592,2.0552,2.0563,2.058,2.0604,2.0606,2.0622,2.0643,2.0646,2.0624,2.0665,2.0674,2.0725,2.0755,2.0703,2.0706,2.0863,2.0866,2.0868,2.09,0,0,0,0,0,0,2.049,2.0503,2.0525,2.0552,2.0565,2.0636,2.0606,2.0609,2.0629,2.0626,2.0656,2.0659,2.0664,2.072,2.0729,2.0759,2.071,2.086,2.0864,2.0868,2.0896,2.0903,2.091,0,0,0,0,0,2.0485,2.0531,2.0526,2.0537,2.0593,2.0638,2.0645,2.065,2.0631,2.0654,2.0668,2.0659,2.075,2.0725,2.0736,2.0768,2.0858,2.0863,2.0867,2.0893,2.0902,2.0909,0,0,0,0,0,0,2.0506,2.0534,2.0529,2.0585,2.0609,2.0635,2.0664,2.0659,2.0689,2.0685,2.069,2.0697,2.075,2.0764,2.0736,2.0828,2.0802,2.0808,2.0817,2.0826,2.0833,2.0829,2.0713,0,0,0,0,0,2.0517,2.0551,2.0574,2.0621,2.0634,2.0647,2.0667,2.0668,2.0694,2.0704,2.0721,2.0747,2.0782,2.0804,2.0837,2.0898,2.0905,2.0925,2.0932,2.0937,2.0944,2.0979,2.0989,2.0884,2.0884,2.0884,0,0,2.054,2.056,2.0581,2.0626,2.0645,2.0681,2.0656,2.0694,2.0721,2.071,2.076,2.0774,2.0803,2.086,2.0886,2.0873,2.0974,2.0943,2.0947,2.0951,2.0985,2.0994,2.1003,2.0887,2.0887,2.0886,0,0,2.0601,2.0619,2.0661,2.0681,2.071,2.0719,2.0729,2.0757,2.0766,2.0816,2.0809,2.0842,2.0901,2.0922,2.0941,2.1013,2.1006,2.1023,2.1059,2.1093,2.1101,2.1109,2.1136,2.1145,2.1029,2.1029,2.1029,0,2.0626,2.068,2.0683,2.0723,2.0744,2.0736,2.0779,2.0799,2.0837,2.0852,2.0837,2.0913,2.0932,2.0995,2.1012,2.1027,2.104,2.102,2.11,2.1107,2.1114,2.114,2.115,2.1031,2.1031,2.1031,2.1031,0,2.071,2.0747,2.0778,2.0816,2.084,2.0882,2.0893,2.0917,2.0917,2.0928,2.0981,2.1003,2.1042,2.1057,2.1056,2.112,2.1112,2.1098,2.1072,2.1126,2.1151,2.1161,2.1034,2.1033,2.1033,2.1032,0,0,2.0785,2.0826,2.0837,2.0855,2.0888,2.0917,2.0959,2.0997,2.1019,2.1046,2.1082,2.1134,2.1122,2.1143,2.1146,2.1176,2.1234,2.1159,2.116,2.1173,2.1308,2.1318,2.133,2.1229,2.1231,2.1232,2.1306,0,2.085,2.0923,2.0929,2.0996,2.1032,2.1025,2.1062,2.1087,2.1099,2.1132,2.1145,2.1182,2.1162,2.1176,2.1205,2.122,2.1261,2.1215,2.1264,2.1266,2.1258,2.1342,2.1353,2.1421,2.1315,2.1317,2.1318,0,2.0935,2.0966,2.1036,2.1066,2.1081,2.1114,2.1151,2.1181,2.121,2.1217,2.1242,2.1241,2.1285,2.1257,2.132,2.1288,2.1309,2.132,2.1323,2.1328,2.1296,2.1351,2.1443,2.1454,2.1333,2.1332,2.1331,0,2.0984,2.1043,2.1094,2.111,2.1145,2.1169,2.1185,2.1212,2.1235,2.1267,2.1282,2.1318,2.1339,2.1367,2.1377,2.1355,2.144,2.1412,2.1448,2.1448,2.1467,2.1466,2.1564,2.1478,2.1478,2.1478,2.1478,0,2.1057,2.1101,2.1117,2.1148,2.1198,2.1205,2.1254,2.1269,2.1293,2.1328,2.1324,2.1357,2.1367,2.1402,2.141,2.1462,2.1471,2.1478,2.148,2.1479,2.1479,2.1494,2.149,2.1481,2.148,2.1479,2.1479,0,2.112,2.1133,2.1188,2.1218,2.1226,2.1262,2.1288,2.1318,2.133,2.1375,2.1385,2.1404,2.1446,2.1458,2.1507,2.1513,2.1574,2.1571,2.1564,2.1565,2.1601,2.1598,2.1713,2.173,2.1632,2.1633,2.1634,0,2.1166,2.12,2.1234,2.1257,2.1274,2.1312,2.1335,2.1344,2.1369,2.1406,2.1433,2.1473,2.1507,2.1573,2.1592,2.163,2.1629,2.1667,2.1635,2.1634,2.1631,2.163,2.1634,2.1673,2.1674,2.1675,2.1676,0,2.1247,2.1252,2.1286,2.1324,2.1352,2.1382,2.1411,2.143,2.1443,2.1472,2.1514,2.154,2.1592,2.1633,2.1672,2.169,2.1686,2.1686,2.1696,2.1696,2.1692,2.1697,2.1582,2.1683,2.1682,2.1682,2.1681,2.1681,2.1304,2.1335,2.1364,2.1403,2.1426,2.1453,2.1484,2.15,2.1536,2.1579,2.1582,2.1628,2.1658,2.1711,2.173,2.1768,2.1757,2.1772,2.1776,2.178,2.1784,2.1685,2.1775,2.1774,2.1774,2.1774,2.1774,0,2.1386,2.1405,2.1441,2.1481,2.1513,2.1506,2.1538,2.1565,2.1606,2.1634,2.1667,2.1717,2.1758,2.178,2.1821,2.1847,2.1846,2.1858,2.1856,2.1861,2.179,2.1778,2.1858,2.1858,2.1858,2.1858,2.1858,2.1858,2.1432,2.1484,2.1493,2.1557,2.1576,2.1622,2.1641,2.1667,2.169,2.1746,2.178,2.1794,2.1821,2.1864,2.1901,2.1907,2.1923,2.1936,2.194,2.1874,2.1865,2.1857,2.1846,2.1939,2.1939,2.2008,2.2009,2.2009]}]]